Orbital Elements at Epoch 2459200.5 (2020-Dec-17.0) TDB
Reference: JPL 20 (heliocentric ecliptic J2000)
Element | Value | Uncertainty (1-sigma) | Units |
e | .1471984043478884 | 4.3735e-08 | |
a | 3.194242693938265 | 2.0891e-08 | au |
q | 2.724055266290652 | 1.391e-07 | au |
i | 8.460421121821481 | 5.2144e-06 | deg |
node | 42.35032025585252 | 3.3508e-05 | deg |
peri | 136.1635279565633 | 3.8421e-05 | deg |
M | 92.96657770834742 | 1.7881e-05 | deg |
tp | 2458662.013728923640 (2019-Jun-27.51372892) | 0.00010285 | TDB |
period | 2085.212367348267 5.71 | 2.0456e-05 5.601e-08 | d yr |
n | .1726442858469166 | 1.6937e-09 | deg/d |
Q | 3.664430121585878 | 2.3966e-08 | au |
|
| | Orbit Determination Parameters
Additional Information
|